Погода в железнодорожной станции Чудово-3

Россия / Новгородская область     59°09′50″N   31°40′16″E
темп.,
°C
ветер,
м/с
пор.,
м/с
влажн.,
%
обл.,
%
осадки,
мм/ч
давл.,
гПа
погр.,
м
19 января, ср
ср1900:00−8юз31090100 0.0 1016216
03:00−5ююз41196100 0.2 1013395
06:00−3юз41196100 1.0 1010495
09:00−2юз41095100 1.3 1009498
12:00−1юз4109592 0.0 1007471
15:000юз41096100 0.0 1005553
18:00+1ююз51295100 0.0 1002623
21:00+1ююз51293100 0.0 999712
20 января, чт
чт2000:00+1ююз51393100 0.0 997783
03:00+1ююз51390100 0.0 995667
06:00+1ююз51489100 0.0 992633
09:00+1ю61587100 0.0 991708
12:00+1ю61388100 0.0 990721
15:000ю51295100 0.1 989843
18:000ю51297100 1.1 988918
21:00−1ю41096100 1.9 989725
21 января, пт
пт2100:00−1ю3992100 0.2 990714
03:00−3ю499483 0.3 992466
06:00−4ююв399489 0.1 993463
09:00−5юв31095100 0.3 995433
12:00−4юв489187 0.3 998574
15:00−4вюв388997 0.3 1000552
18:00−9всв289650 0.0 1002168
21:00−9св2696100 0.0 1005127
22 января, сб
сб2200:00−5ссв3996100 0.6 1007402
03:00−5св4895100 2.4 1008674
06:00−8св499290 0.1 1011401
09:00−11св399593 0.1 1014244
12:00−10ссв369499 0.0 1016222
15:00−8ссв259495 0.1 1018303
18:00−12св269871 0.0 102095
21:00−15всв249966 0.0 102349
23 января, вс
вс2300:00−17ссв119961 0.0 102524
03:00−18св119964 0.0 102723
06:00−19всв119946 0.0 102913
09:00−19в119944 0.0 103011
12:00−13ссз009566 0.0 103268
15:00−10юз01945 0.0 103264
18:00−15ю119964 0.0 10339
21:00−16ююз219966 0.0 103319